sat.trackr.live / text

‹ back to catalog

STARLINK-31030

NORAD 58542 · 2023-192M

PAYLOAD ACTIVE UNKNOWN

§ Identity

Operator
Country
US
Launch date
2023-12-08
Launch site
AFWTR
Launch vehicle
Mass (kg)
RCS (m²)

Purposes: comms

External: N2YO · Heavens-Above · Gunter

§ Orbital elements

Epoch: 2026-05-25T03:49:27.691392Z

Period
93.85 min
Inclination
53.1612°
Eccentricity
0.0001384
Mean motion
15.34394460 rev/d
Perigee alt
461.8 km
Apogee alt
463.7 km
Semi-major
6,840.9 km
B*
6.2759e-5
RAAN
66.8088°
Arg perigee
91.8232°
Mean anomaly
268.2929°
Rev number
13,770

§ Raw data

STARLINK-310301 58542U 23192M   26145.15934828  .00001744  00000+0  62759-4 0  99972 58542  53.1612  66.8088 0001384  91.8232 268.2929 15.34394460137706

JSON: /api/v1/satellites/58542 · /tle

For live sub-satellite position, see the globe view (requires WebGL).

§ Visibility from observer

Set your observer location to see the next 7 days of passes ≥ 10°. The values pass through the URL so the page stays shareable.

No JS? Fill the form by hand. The geolocation button needs JavaScript.